Location: Lobstick
(53.6000°N, 115.1667°W)
Time: 09:53:55
(UTC+00:00)

NOAA 15 - Visible Passes

Search period start: 01 December 2023 00:00
Search period end: 11 December 2023 00:00
Orbit: 796 x 811 km, 98.6° (Epoch: 30 November)

Date Brightness Start Highest point End Pass type
(mag) Time Alt. Az. Time Alt. Az. Time Alt. Az.
01 Dec 5.3 01:04:44 10° ESE 01:09:19 31° ENE 01:13:54 10° N visible
01 Dec 5.2 02:43:38 10° S 02:48:51 56° W 02:54:05 10° NNW visible
01 Dec 7.6 04:29:41 10° W 04:29:48 10° W 04:29:55 10° W visible
01 Dec 6.4 14:51:48 10° NNE 14:56:38 35° E 15:01:24 10° SSE visible
02 Dec 5.7 00:40:05 10° ESE 00:44:01 22° NE 00:47:57 10° N visible
02 Dec 4.5 02:17:53 10° SSE 02:23:12 85° WSW 02:28:33 10° NNW visible
02 Dec 7.2 04:00:30 10° SW 04:03:46 16° W 04:07:03 10° NW visible
02 Dec 7.2 14:26:38 10° NE 14:30:47 23° E 14:34:54 10° SE visible
03 Dec 6.1 00:15:49 10° E 00:18:48 15° NE 00:21:48 10° NNE visible
03 Dec 4.5 01:52:25 10° SSE 01:57:39 64° ENE 02:02:54 10° N visible
03 Dec 6.6 03:33:31 10° SW 03:37:51 25° W 03:42:12 10° NW visible
03 Dec 7.5 14:01:54 10° NE 14:04:51 15° E 14:07:46 10° ESE visible
04 Dec 4.9 01:27:13 10° SE 01:32:11 43° ENE 01:37:10 10° N visible
04 Dec 5.9 03:07:07 10° SSW 03:12:02 38° W 03:16:58 10° NNW visible
05 Dec 5.4 01:02:17 10° ESE 01:06:49 29° ENE 01:11:20 10° N visible
05 Dec 5.1 02:41:05 10° S 02:46:18 59° WSW 02:51:33 10° NNW visible
05 Dec 7.6 04:26:09 10° W 04:27:13 11° W 04:28:16 10° WNW visible
05 Dec 6.5 14:49:18 10° NNE 14:54:04 34° E 14:58:47 10° SSE visible
06 Dec 5.8 00:37:40 10° E 00:41:30 21° NE 00:45:22 10° N visible
06 Dec 4.5 02:15:21 10° SSE 02:20:40 89° WSW 02:26:00 10° NNW visible
06 Dec 7.1 03:57:48 10° SW 04:01:12 17° W 04:04:36 10° NW visible
06 Dec 7.2 14:24:09 10° NE 14:28:13 22° E 14:32:14 10° SE visible
07 Dec 6.1 00:13:26 10° E 00:16:18 15° NE 00:19:10 10° NNE visible
07 Dec 4.5 01:49:55 10° SSE 01:55:07 62° ENE 02:00:21 10° N visible
07 Dec 6.5 03:30:53 10° SSW 03:35:17 26° W 03:39:42 10° NW visible
07 Dec 7.5 13:59:29 10° NE 14:02:15 14° E 14:05:00 10° ESE visible
08 Dec 4.9 01:24:44 10° SE 01:29:40 41° ENE 01:34:36 10° N visible
08 Dec 5.8 03:04:31 10° SSW 03:09:28 39° W 03:14:27 10° NNW visible
09 Dec 5.4 00:59:50 10° ESE 01:04:17 28° ENE 01:08:45 10° N visible
09 Dec 5.0 02:38:31 10° S 02:43:45 61° WSW 02:49:00 10° NNW visible
09 Dec 7.5 04:23:09 10° W 04:24:37 11° W 04:26:06 10° WNW visible
09 Dec 6.6 14:46:47 10° NNE 14:51:29 32° E 14:56:09 10° SSE visible
10 Dec 5.8 00:35:14 10° E 00:38:59 20° NE 00:42:45 10° N visible
10 Dec 4.5 02:12:49 10° SSE 02:18:07 88° ENE 02:23:26 10° NNW visible
10 Dec 7.1 03:55:06 10° SW 03:58:36 18° W 04:02:08 10° NW visible
10 Dec 7.3 14:21:40 10° NE 14:25:37 21° E 14:29:33 10° SE visible
